EVA159 RKSI-RCTP

Flight info

Callsign EVA159
Flight time N/A
Altitude 36000
Route BOPTA Z51 BEDES Y711 MUGUS Y742 SALMI B576 BAKER
Aircraft B77W/H-SDE1E2E3FGHIJ1J3J4J5LM1P2RWXYZ/LB1D1

Departure

Time 2026-05-07 10:41
Airport Incheon International Airport (RKSI)

Arrival

Time N/A
Airport Taiwan Taoyuan International Airport (RCTP)
Time Latitude Longitude Altitude Speed Heading
2026-05-07 10:18 37.45079 126.44700 37 ft 0 kts 216°
2026-05-07 10:30 37.45099 126.44719 36 ft 2 kts 220°
2026-05-07 10:30 37.45112 126.44733 37 ft 2 kts 225°
2026-05-07 10:30 37.45123 126.44748 37 ft 2 kts 232°
2026-05-07 10:30 37.45132 126.44766 37 ft 2 kts 245°
2026-05-07 10:31 37.45137 126.44785 35 ft 2 kts 268°
2026-05-07 10:31 37.45135 126.44806 34 ft 2 kts 298°
2026-05-07 10:31 37.45131 126.44814 34 ft 0 kts 306°
2026-05-07 10:33 37.45131 126.44813 34 ft 2 kts 306°
2026-05-07 10:33 37.45165 126.44755 37 ft 13 kts 306°
2026-05-07 10:34 37.45218 126.44664 37 ft 13 kts 306°
2026-05-07 10:34 37.45253 126.44605 37 ft 8 kts 313°
2026-05-07 10:34 37.45293 126.44559 37 ft 8 kts 307°
2026-05-07 10:34 37.45299 126.44492 37 ft 8 kts 254°
2026-05-07 10:35 37.45272 126.44429 37 ft 8 kts 235°
2026-05-07 10:35 37.45240 126.44373 37 ft 8 kts 234°
2026-05-07 10:35 37.45208 126.44315 37 ft 8 kts 234°
2026-05-07 10:35 37.45176 126.44257 37 ft 8 kts 234°
2026-05-07 10:36 37.45144 126.44201 37 ft 8 kts 234°
2026-05-07 10:36 37.45111 126.44144 37 ft 8 kts 234°
2026-05-07 10:36 37.45079 126.44087 37 ft 8 kts 234°
2026-05-07 10:36 37.45044 126.44032 37 ft 8 kts 219°
2026-05-07 10:37 37.44990 126.44024 37 ft 8 kts 164°
2026-05-07 10:37 37.44941 126.44060 37 ft 8 kts 146°
2026-05-07 10:37 37.44894 126.44101 37 ft 8 kts 144°
2026-05-07 10:37 37.44809 126.44177 37 ft 24 kts 144°
2026-05-07 10:38 37.44669 126.44302 37 ft 24 kts 144°
2026-05-07 10:38 37.44600 126.44363 37 ft 10 kts 145°
2026-05-07 10:38 37.44542 126.44409 37 ft 10 kts 160°
2026-05-07 10:38 37.44480 126.44384 37 ft 10 kts 221°
2026-05-07 10:39 37.44437 126.44318 37 ft 10 kts 234°
2026-05-07 10:39 37.44397 126.44248 20 ft 10 kts 234°
2026-05-07 10:39 37.44380 126.44169 40 ft 10 kts 286°
2026-05-07 10:39 37.44424 126.44104 37 ft 7 kts 322°
2026-05-07 10:40 37.44427 126.44101 37 ft 1 kts 323°
2026-05-07 10:40 37.44524 126.44014 37 ft 39 kts 325°
2026-05-07 10:40 37.44968 126.43618 38 ft 117 kts 324°
2026-05-07 10:40 37.45818 126.42847 41 ft 180 kts 323°
2026-05-07 10:41 37.46876 126.41943 696 ft 181 kts 324°
2026-05-07 10:41 37.47828 126.40960 1544 ft 176 kts 301°
2026-05-07 10:41 37.48367 126.39552 2041 ft 188 kts 303°
2026-05-07 10:41 37.49289 126.38241 2273 ft 213 kts 312°
2026-05-07 10:42 37.50262 126.36702 2527 ft 235 kts 292°
2026-05-07 10:42 37.50494 126.34639 3143 ft 245 kts 271°
2026-05-07 10:42 37.50510 126.32461 3932 ft 251 kts 272°
2026-05-07 10:42 37.50550 126.30251 4840 ft 255 kts 273°
2026-05-07 10:43 37.50598 126.28008 5771 ft 256 kts 272°
2026-05-07 10:43 37.50648 126.25763 6719 ft 256 kts 272°
2026-05-07 10:44 37.50237 126.19402 9147 ft 260 kts 240°
2026-05-07 10:44 37.49494 126.18207 9746 ft 262 kts 228°
2026-05-07 10:44 37.47436 126.16502 10714 ft 279 kts 208°
2026-05-07 10:44 37.45521 126.15588 10924 ft 309 kts 205°
2026-05-07 10:45 37.43372 126.14804 11081 ft 339 kts 192°
2026-05-07 10:45 37.40921 126.15101 11613 ft 370 kts 168°
2026-05-07 10:45 37.38603 126.16700 12429 ft 395 kts 144°
2026-05-07 10:45 37.36720 126.19266 13274 ft 406 kts 134°
2026-05-07 10:46 37.34893 126.22041 14085 ft 415 kts 135°
2026-05-07 10:46 37.33019 126.24815 15047 ft 417 kts 136°
2026-05-07 10:46 37.31115 126.27573 16043 ft 419 kts 137°
2026-05-07 10:46 37.29176 126.30344 16955 ft 424 kts 138°
2026-05-07 10:47 37.27210 126.33141 17826 ft 430 kts 139°
2026-05-07 10:47 37.25244 126.35941 18606 ft 436 kts 139°
2026-05-07 10:47 37.23197 126.38857 19321 ft 443 kts 139°
2026-05-07 10:47 37.21146 126.41776 19990 ft 448 kts 140°
2026-05-07 10:48 37.18913 126.44369 20508 ft 440 kts 155°
2026-05-07 10:48 37.18031 126.45026 20696 ft 434 kts 163°